Garden City, GA

3:10 AM EDT on September 29, 2016 (GMT -0400)
Savannah International

Weather History for KSAV - July, 2012

Change the Weather History Date:

Saturday, July 21, 2012

  Actual Average Record
Temperature  
Mean Temperature 84 °F 83 °F  
Max Temperature 93 °F 93 °F 103 °F (1942)
Min Temperature 75 °F 73 °F 64 °F (1910)
Degree Days  
Heating Degree Days 0 0  
Month to date heating degree days 0 0  
Since 1 June heating degree days 0 0  
Since 1 July heating degree days 0 0  
Cooling Degree Days 19 18  
Month to date cooling degree days 393 370  
Year to date cooling degree days 1435 1219  
Since 1 June cooling degree days 771 816  
Growing Degree Days 34 (Base 50)    
Moisture  
Dew Point 72 °F    
Average Humidity 68    
Maximum Humidity 87    
Minimum Humidity 49    
Precipitation  
Precipitation 0.00 in 0.18 in 1.87 in (1991)
Month to date precipitation 3.29 3.61  
Year to date precipitation 23.39 25.82  
Sea Level Pressure  
Sea Level Pressure 30.08 in    
Wind  
Wind Speed 8 mph (SSW)    
Max Wind Speed 15 mph    
Max Gust Speed 18 mph    
Visibility 10 miles    
Events      
T = Trace of Precipitation, MM = Missing Value Source: NWS Daily Summary

Daily Weather History Graph

Daily Weather History Graph

Search for Another Location

Airport or City:

Trip Planner

Search our weather history database for the weather conditions in past years. The results will help you decide how hot, cold, wet, or windy it might be!

Date:

Astronomy

Jul. 21, 2012 Rise Set
Actual Time 6:33 AM EDT 8:29 PM EDT
Civil Twilight 6:05 AM EDT 8:56 PM EDT
Nautical Twilight 5:32 AM EDT 9:29 PM EDT
Astronomical Twilight 4:57 AM EDT 10:04 PM EDT
Moon 8:59 AM EDT (7/21) 9:55 PM EDT (7/21)
Length of Visible Light 14h 50m
Length of Day
13h 56m
Waxing Crescent, 7% of the Moon is Illuminated
Jul 21
Waxing Crescent
Jul 26
First Quarter
Aug 1
Full
Aug 9
Last Quarter
Aug 17
New

Hourly Weather History & Observations

Time (EDT) Temp. Heat Index Dew Point Humidity Pressure Visibility Wind Dir Wind Speed Gust Speed Precip Events Conditions
12:53 AM 75.9 °F - 70.0 °F 82% 30.05 in 10.0 mi SW 6.9 mph - N/A   Mostly Cloudy
1:53 AM 75.9 °F - 71.1 °F 85% 30.05 in 10.0 mi SW 8.1 mph - N/A   Partly Cloudy
2:53 AM 75.9 °F - 71.1 °F 85% 30.05 in 10.0 mi SW 5.8 mph - N/A   Partly Cloudy
3:53 AM 75.0 °F - 71.1 °F 87% 30.05 in 10.0 mi SW 5.8 mph - N/A   Mostly Cloudy
4:53 AM 75.0 °F - 71.1 °F 87% 30.06 in 10.0 mi SW 6.9 mph - N/A   Mostly Cloudy
5:53 AM 75.0 °F - 71.1 °F 87% 30.06 in 10.0 mi SSW 5.8 mph - N/A   Mostly Cloudy
6:53 AM 75.0 °F - 71.1 °F 87% 30.07 in 10.0 mi SSW 4.6 mph - N/A   Mostly Cloudy
7:53 AM 75.0 °F - 72.0 °F 90% 30.08 in 10.0 mi SSW 5.8 mph - N/A   Mostly Cloudy
8:53 AM 77.0 °F - 72.0 °F 84% 30.09 in 10.0 mi SSW 8.1 mph - N/A   Mostly Cloudy
9:53 AM 80.1 °F 83.8 °F 72.0 °F 76% 30.10 in 10.0 mi SSW 6.9 mph - N/A   Mostly Cloudy
10:53 AM 84.0 °F 90.2 °F 73.0 °F 69% 30.10 in 10.0 mi South 10.4 mph - N/A   Mostly Cloudy
11:53 AM 88.0 °F 95.6 °F 73.0 °F 61% 30.11 in 10.0 mi SSW 8.1 mph - N/A   Mostly Cloudy
12:53 PM 88.0 °F 94.7 °F 72.0 °F 59% 30.11 in 10.0 mi SSW 6.9 mph 18.4 mph N/A   Mostly Cloudy
1:53 PM 90.0 °F 96.4 °F 71.1 °F 54% 30.10 in 10.0 mi SSW 9.2 mph - N/A   Mostly Cloudy
2:53 PM 91.0 °F 96.6 °F 70.0 °F 50% 30.08 in 10.0 mi South 13.8 mph - N/A   Mostly Cloudy
3:53 PM 91.9 °F 98.4 °F 71.1 °F 50% 30.07 in 10.0 mi SSW 10.4 mph - N/A   Mostly Cloudy
4:53 PM 91.0 °F 95.6 °F 69.1 °F 48% 30.06 in 10.0 mi SW 12.7 mph - N/A   Mostly Cloudy
5:53 PM 91.0 °F 95.6 °F 69.1 °F 48% 30.05 in 10.0 mi SW 9.2 mph - N/A   Mostly Cloudy
6:53 PM 90.0 °F 95.4 °F 70.0 °F 52% 30.05 in 10.0 mi SW 6.9 mph - N/A   Mostly Cloudy
7:53 PM 87.1 °F 92.8 °F 71.1 °F 59% 30.06 in 10.0 mi South 10.4 mph - N/A   Mostly Cloudy
8:53 PM 84.0 °F 90.2 °F 73.0 °F 69% 30.08 in 10.0 mi South 9.2 mph - N/A   Mostly Cloudy
9:53 PM 82.0 °F 88.6 °F 75.0 °F 79% 30.09 in 10.0 mi South 11.5 mph - N/A   Mostly Cloudy
10:53 PM 82.0 °F 88.6 °F 75.0 °F 79% 30.12 in 10.0 mi South 8.1 mph - N/A   Overcast
11:53 PM 81.0 °F 86.7 °F 75.0 °F 82% 30.14 in 10.0 mi South 6.9 mph - N/A   Mostly Cloudy